Location: Luxembourg
(49.6117°N, 6.1300°E)
Time: 04:26:52
(UTC+01:00)

ISS - Pass Details

Date: 01 February 2019
Orbit: 403 x 411 km, 51.6° (Epoch: 20 February)

Event Time Altitude Azimuth Distance (km) Brightness Sun altitude
Rises 18:53:51 0° 277° (W) 2,335 1.6 -13.7°
Reaches altitude 10° 18:55:57 10° 281° (WNW) 1,476 0.2 -14.0°
Maximum altitude 18:59:14 58° 2° (N) 483 -3.6 -14.5°
Enters shadow 19:00:32 32° 69° (ENE) 736 -3.1 -14.7°
